Wind_Speed
8 10 12 17 21 23 15 9 7 4 4 5 7 10 11 10 11 12 12 12 13 15 15 17 17 17 17 16 12 12 12 12 11 10 14 11 13 17 17 20 18 15 15
9 9 11 13 15 13 11 7 6 3 4 6 9 11 14 15 16 18 18 18 17 16 18 21 20 20 23 25 23 21 19 17 12 12 13 14 11 15 15 17 20 19 17
7 7 6 8 9 11 9 7 5 5 7 8 11 14 16 17 19 21 22 24 21 19 22 24 28 28 26 24 26 28 26 22 16 12 13 15 13 14 15 14 16 19 21
10 5 3 3 5 8 7 4 4 7 9 12 14 17 19 20 21 23 25 27 23 21 23 26 30 36 43 36 37 35 32 27 21 19 13 14 13 14 17 14 14 14 21
11 3 5 3 2 4 8 10 11 12 14 16 18 20 22 24 26 27 28 31 29 28 31 33 26 15 24 20 34 39 37 30 25 24 21 15 17 15 15 15 15 12 16
3 6 4 2 2 3 4 5 7 10 14 17 19 21 21 22 26 28 32 38 18 23 28 21 29 20 16 13 19 11 20 32 31 31 29 27 23 23 20 17 17 15 14
7 6 6 3 2 1 3 4 6 9 11 14 16 19 21 22 25 28 33 35 32 27 20 21 22 16 18 19 15 14 14 11 34 38 35 32 33 31 20 18 19 20 18
9 7 7 7 6 6 7 7 9 11 12 13 15 17 19 21 26 28 30 30 29 28 27 25 25 19 18 16 19 16 12 11 8 5 11 26 19 16 15 14 13 15 15
12 10 6 6 9 10 9 10 12 14 16 18 19 21 23 25 26 27 28 29 26 26 26 26 26 21 22 17 17 18 15 14 14 12 5 10 15 13 12 14 14 13 13
14 13 12 10 13 13 14 13 14 14 16 18 20 22 24 24 23 24 25 25 25 23 21 24 25 24 23 20 16 17 17 11 13 11 5 9 11 13 14 15 16 15 15
15 13 16 16 14 14 17 18 19 18 19 19 20 22 25 26 26 24 25 26 27 26 24 21 21 22 24 23 23 19 19 16 16 11 5 8 13 16 18 22 21 19 21
16 15 15 16 14 17 21 20 20 19 19 20 21 22 26 26 26 28 30 29 27 28 28 28 24 22 22 22 23 23 22 22 19 18 19 19 22 25 26 27 25 23 25
15 17 17 16 15 15 18 19 20 20 21 22 23 23 24 25 25 26 28 30 30 29 28 28 29 27 25 25 26 28 27 26 26 26 23 27 29 30 30 30 31 30 29
13 14 14 15 17 18 19 20 21 22 24 25 26 28 29 31 30 31 31 30 31 31 30 29 29 31 30 29 29 29 31 31 31 30 31 30 32 31 32 33 33 34 33
11 11 13 16 17 18 19 21 23 25 25 26 28 30 31 32 32 32 31 30 29 29 30 32 32 32 33 34 34 33 33 33 33 33 34 34 34 35 36 36 36 39 37
14 13 14 17 20 20 21 23 25 26 28 31 31 31 31 31 33 32 31 30 30 28 27 28 30 34 36 37 38 38 38 38 39 40 40 40 41 41 40 40 39 40 41
18 18 19 22 23 23 25 27 28 30 33 34 34 31 30 31 32 32 32 32 31 30 29 28 28 28 30 32 33 35 39 41 43 44 44 45 45 46 45 44 41 39 40
21 22 24 26 28 28 29 31 32 32 33 35 34 32 32 33 31 31 31 32 33 33 32 31 30 31 32 32 34 34 35 37 39 40 41 42 43 45 44 41 39 39 39
24 24 26 29 31 30 32 34 35 34 35 34 33 32 32 32 34 35 33 32 31 29 29 29 29 29 29 30 33 36 39 40 40 39 39 39 39 40 41 39 36 36 37
25 25 27 32 33 34 35 36 35 35 35 35 33 32 33 33 33 33 34 34 33 31 30 30 30 31 31 31 33 34 36 38 40 42 42 43 42 42 41 39 37 33 33
27 28 30 33 36 36 37 36 36 35 34 34 33 34 34 34 32 32 32 32 32 30 31 31 32 32 32 34 36 37 37 36 40 42 43 45 48 45 41 41 39 38 37
31 32 33 35 37 37 36 35 35 34 34 34 34 35 35 34 33 32 32 33 34 36 36 36 37 37 37 38 39 39 40 41 42 41 43 45 49 50 50 47 44 41 41
33 35 36 36 37 37 36 35 34 34 34 33 34 35 34 33 32 33 33 35 37 38 40 39 39 40 41 41 43 44 42 41 43 44 46 47 48 50 53 51 49 47 45
36 36 37 37 36 37 35 33 34 34 34 34 34 33 33 33 35 36 38 39 40 41 41 42 42 41 41 41 43 45 45 44 39 38 43 47 46 48 49 49 47 48 47
36 37 36 36 36 34 34 34 34 34 34 34 33 33 34 36 39 41 41 42 44 44 44 45 45 45 45 46 46 44 47 47 44 44 38 51 33 38 43 44 45 45 48
38 37 37 37 36 35 34 34 34 34 33 33 33 36 39 41 42 43 44 44 45 46 47 47 47 47 47 48 47 46 44 48 47 46 43 42 41 38 37 36 40 47 49
Wind_Direction
328 321 324 304 272 248 240 237 235 222 221 248 250 268 289 301 302 299 300 304 309 308 311 295 290 288 285 283 272 273 274 278 282 282 282 294 284 286 285 282 272 273 270
325 333 19 52 71 122 179 204 219 241 249 244 263 275 283 286 288 295 303 310 302 304 309 314 312 305 296 291 288 279 267 259 255 259 267 276 278 283 289 293 292 280 269
305 323 29 105 107 125 134 150 181 222 249 266 276 281 282 285 292 297 298 294 296 301 299 299 297 291 288 279 278 276 272 271 262 253 266 274 278 271 278 280 289 286 272
293 304 339 39 182 184 190 191 240 260 271 279 282 285 287 291 292 290 290 292 290 284 285 291 296 283 289 266 275 266 264 261 259 266 275 265 275 285 277 282 283 276 264
292 315 17 356 279 239 225 229 246 263 272 274 278 284 290 294 295 291 288 281 278 277 280 277 300 314 314 326 312 269 252 262 259 253 269 276 281 280 281 274 279 278 261
319 21 24 38 308 299 307 295 281 284 288 291 295 298 298 297 291 286 276 288 290 327 359 6 348 30 343 22 14 345 275 250 259 262 254 259 275 277 282 276 279 276 257
9 358 339 359 358 321 298 295 297 296 295 297 299 300 299 298 294 296 299 310 327 331 336 337 332 352 335 343 344 11 360 296 249 253 249 251 265 263 258 267 281 284 284
332 328 319 332 328 322 313 315 310 303 300 300 297 297 297 296 295 296 300 308 315 320 322 323 322 334 331 331 328 337 27 37 24 230 264 267 242 246 255 263 266 275 279
313 307 297 302 296 293 296 297 294 293 296 297 296 296 294 292 292 296 300 304 306 307 308 308 310 322 316 323 321 317 327 343 354 355 258 221 224 237 253 272 267 274 273
293 289 288 283 276 279 282 285 287 293 293 295 297 296 293 292 295 302 307 311 313 308 305 301 302 300 298 301 303 301 300 318 315 341 320 226 211 229 253 268 274 274 276
299 291 271 265 270 285 290 294 298 300 297 298 298 298 296 299 302 302 299 301 305 304 306 301 297 296 294 294 290 283 281 284 284 284 249 224 249 260 262 272 276 281 283
290 286 276 273 279 288 294 303 305 300 301 297 294 294 296 297 300 302 305 305 306 302 301 302 304 300 293 286 282 278 271 272 271 266 268 262 261 265 265 270 278 278 280
285 285 284 290 299 296 293 295 298 302 301 299 302 303 301 301 304 304 304 304 305 300 298 297 296 292 288 284 277 274 272 267 265 267 257 259 261 263 268 273 275 276 278
280 285 299 305 304 301 301 304 310 309 308 310 307 307 306 306 309 307 304 299 295 293 292 290 287 285 284 282 279 274 272 269 268 267 267 265 265 263 265 271 276 279 279
281 289 300 304 299 301 306 308 305 303 305 304 304 304 307 308 306 304 305 307 302 296 292 292 288 281 280 279 277 274 273 273 272 269 267 266 265 268 272 272 273 277 277
281 289 300 304 302 307 311 306 306 309 308 308 308 312 311 309 307 307 308 307 306 307 301 294 288 285 283 279 276 274 273 271 270 269 269 268 267 267 267 269 270 274 276
287 292 300 299 304 309 308 310 312 312 311 309 311 314 312 309 308 308 308 308 306 303 301 299 297 292 286 285 281 276 274 274 274 273 271 269 269 269 269 270 269 267 268
291 298 299 302 304 306 310 310 311 309 309 310 311 312 310 308 309 307 306 305 305 305 303 299 293 289 285 283 282 280 278 277 275 274 272 270 269 270 270 268 265 263 261
295 296 296 297 298 305 307 309 309 311 309 308 309 312 307 309 308 307 307 308 310 307 305 306 303 296 291 290 288 286 283 279 276 274 273 269 267 267 269 269 266 261 259
293 295 298 296 302 305 307 308 309 308 308 308 310 307 306 307 307 307 309 309 310 310 307 304 304 302 298 293 290 287 282 281 279 278 274 269 265 265 268 268 267 263 261
297 299 297 301 302 305 307 309 308 307 306 307 308 307 309 308 306 306 305 303 303 304 307 306 305 306 303 298 295 293 291 288 279 274 272 269 267 264 263 265 265 263 262
298 299 301 301 303 305 308 307 305 305 307 307 308 309 309 307 306 306 305 303 303 304 307 306 306 304 304 300 297 293 288 285 279 275 269 265 265 263 263 263 264 263 260
300 300 303 304 305 306 305 304 304 305 307 308 308 308 307 307 304 303 303 304 305 305 305 306 305 305 304 303 300 294 292 286 280 274 270 265 263 262 262 262 263 261 262
300 301 302 303 304 303 304 304 306 307 307 307 307 306 305 304 305 307 307 307 307 307 306 306 307 307 307 305 301 298 293 289 286 279 277 271 267 263 259 256 259 260 260
300 302 302 303 302 301 302 304 303 303 304 305 304 303 305 307 309 310 310 310 309 308 308 309 310 309 309 309 308 304 299 292 287 280 285 264 271 270 263 254 255 259 259
301 301 301 302 302 301 301 302 302 303 303 302 304 307 309 309 310 310 310 309 309 309 308 308 309 309 309 308 306 306 303 297 291 283 282 276 273 272 273 267 272 258 258
Height
5935 5933 5929 5924 5923 5925 5929 5929 5932 5934 5935 5936 5938 5939 5939 5937 5937 5938 5938 5936 5935 5934 5933 5931 5930 5928 5926 5925 5925 5923 5923 5924 5924 5924 5922 5923 5924 5924 5924 5924 5925 5925 5925
5933 5931 5928 5925 5923 5922 5926 5929 5929 5931 5933 5934 5935 5936 5935 5935 5935 5936 5935 5932 5931 5931 5929 5928 5928 5926 5924 5921 5919 5918 5918 5918 5919 5918 5919 5918 5919 5918 5920 5919 5919 5920 5919
5932 5930 5928 5928 5927 5926 5927 5927 5927 5929 5931 5932 5933 5933 5933 5934 5933 5931 5929 5926 5926 5926 5925 5922 5920 5919 5916 5913 5912 5909 5908 5910 5914 5913 5911 5912 5913 5914 5913 5914 5913 5913 5913
5931 5928 5926 5925 5926 5925 5925 5925 5927 5928 5929 5929 5929 5929 5929 5929 5928 5926 5924 5920 5918 5917 5915 5914 5911 5905 5900 5889 5899 5901 5900 5899 5903 5908 5907 5904 5905 5909 5910 5910 5909 5909 5907
5928 5927 5925 5924 5924 5924 5925 5925 5926 5926 5926 5926 5926 5926 5925 5925 5921 5920 5916 5909 5906 5902 5905 5902 5882 5891 5892 5887 5885 5886 5889 5892 5892 5900 5902 5900 5898 5900 5901 5903 5904 5904 5903
5926 5924 5924 5923 5923 5922 5923 5923 5923 5923 5923 5922 5921 5921 5920 5920 5915 5913 5898 5878 5871 5884 5895 5896 5896 5890 5895 5887 5889 5882 5879 5883 5883 5888 5894 5893 5891 5891 5895 5895 5896 5898 5898
5921 5921 5921 5921 5921 5921 5921 5920 5920 5921 5920 5919 5918 5917 5915 5915 5911 5907 5899 5898 5894 5894 5896 5896 5894 5887 5890 5884 5885 5882 5875 5871 5874 5877 5879 5885 5886 5882 5886 5889 5890 5892 5892
5920 5920 5919 5918 5918 5918 5918 5917 5917 5917 5917 5916 5915 5913 5911 5909 5905 5903 5900 5897 5894 5891 5890 5889 5889 5882 5885 5883 5880 5878 5875 5874 5872 5870 5872 5875 5876 5877 5880 5882 5883 5885 5886
5918 5917 5917 5915 5916 5916 5915 5913 5913 5913 5911 5910 5909 5907 5904 5903 5901 5897 5895 5894 5894 5891 5888 5884 5883 5877 5879 5877 5877 5878 5872 5868 5867 5866 5864 5867 5871 5873 5877 5877 5877 5879 5880
5916 5915 5914 5913 5913 5913 5912 5910 5909 5908 5908 5906 5903 5900 5898 5896 5895 5893 5890 5888 5886 5884 5884 5881 5877 5877 5878 5876 5874 5873 5868 5865 5867 5865 5862 5864 5866 5869 5871 5870 5871 5872 5873
5912 5911 5911 5910 5909 5907 5906 5905 5905 5903 5902 5900 5898 5895 5891 5889 5888 5887 5884 5881 5880 5878 5878 5878 5877 5874 5870 5868 5867 5865 5864 5864 5864 5863 5862 5862 5865 5864 5863 5864 5865 5865 5866
5908 5906 5906 5905 5904 5903 5901 5900 5899 5898 5896 5895 5893 5890 5887 5885 5883 5879 5876 5874 5873 5871 5868 5866 5865 5864 5862 5862 5860 5859 5858 5858 5858 5857 5856 5857 5858 5858 5854 5855 5857 5858 5858
5904 5902 5902 5900 5898 5899 5898 5896 5894 5892 5890 5889 5887 5885 5882 5879 5877 5874 5871 5868 5865 5863 5861 5859 5856 5855 5854 5854 5852 5850 5850 5850 5851 5851 5851 5851 5850 5848 5848 5848 5848 5849 5848
5899 5897 5898 5896 5895 5894 5892 5890 5888 5885 5883 5883 5880 5878 5874 5870 5870 5867 5863 5860 5857 5854 5852 5850 5848 5845 5845 5844 5843 5843 5842 5842 5842 5842 5842 5842 5840 5841 5841 5840 5838 5837 5839
5894 5894 5894 5893 5891 5889 5888 5886 5882 5879 5878 5876 5873 5869 5867 5863 5859 5855 5853 5851 5848 5846 5843 5840 5838 5837 5836 5834 5834 5833 5832 5832 5831 5831 5831 5830 5830 5831 5830 5830 5828 5827 5829
5889 5890 5889 5888 5886 5884 5883 5880 5876 5873 5870 5866 5863 5862 5858 5853 5849 5846 5844 5841 5837 5835 5833 5830 5828 5825 5823 5822 5821 5821 5821 5820 5819 5818 5818 5817 5817 5817 5818 5819 5818 5817 5814
5885 5884 5883 5881 5879 5878 5875 5872 5869 5865 5861 5857 5855 5853 5849 5844 5840 5837 5834 5830 5828 5826 5823 5820 5817 5815 5812 5810 5809 5807 5807 5805 5804 5804 5803 5803 5803 5802 5803 5805 5806 5806 5806
5878 5877 5875 5873 5871 5870 5867 5863 5861 5858 5855 5849 5846 5843 5839 5834 5832 5829 5826 5822 5818 5814 5811 5809 5807 5804 5801 5799 5797 5795 5794 5792 5791 5789 5789 5788 5788 5786 5786 5790 5791 5792 5792
5871 5870 5868 5866 5863 5862 5858 5855 5851 5849 5844 5841 5837 5835 5830 5826 5822 5818 5815 5812 5809 5805 5802 5798 5795 5793 5791 5789 5786 5784 5781 5779 5778 5777 5775 5775 5774 5773 5773 5774 5776 5778 5778
5863 5863 5861 5856 5854 5852 5849 5846 5843 5838 5834 5831 5829 5825 5822 5817 5813 5808 5804 5801 5797 5794 5792 5789 5786 5782 5780 5777 5775 5773 5770 5767 5764 5764 5763 5761 5760 5760 5760 5761 5762 5764 5765
5856 5855 5852 5848 5844 5842 5839 5836 5831 5828 5825 5821 5818 5814 5811 5807 5803 5800 5796 5792 5789 5787 5783 5779 5776 5772 5768 5765 5762 5759 5757 5755 5753 5751 5748 5747 5746 5746 5747 5747 5749 5750 5752
5846 5844 5842 5839 5836 5832 5829 5825 5821 5818 5815 5812 5807 5803 5800 5796 5793 5790 5787 5783 5780 5776 5772 5769 5764 5760 5756 5753 5749 5745 5742 5739 5737 5735 5734 5733 5731 5731 5732 5733 5735 5736 5737
5838 5835 5832 5829 5825 5822 5819 5816 5812 5809 5806 5802 5798 5794 5791 5787 5784 5781 5778 5774 5769 5764 5759 5755 5751 5746 5742 5738 5734 5730 5726 5723 5719 5717 5716 5715 5716 5716 5715 5717 5719 5721 5722
5828 5825 5822 5819 5816 5812 5809 5806 5802 5798 5795 5792 5788 5785 5781 5778 5774 5770 5765 5761 5756 5751 5746 5742 5737 5732 5728 5724 5719 5714 5710 5706 5704 5701 5698 5697 5696 5697 5699 5699 5701 5704 5707
5818 5815 5812 5809 5806 5803 5799 5795 5792 5789 5786 5782 5778 5775 5771 5767 5762 5758 5753 5748 5743 5739 5734 5729 5723 5718 5713 5709 5704 5699 5693 5689 5687 5684 5679 5677 5679 5679 5681 5683 5686 5688 5690
5808 5805 5802 5799 5795 5792 5788 5785 5782 5778 5775 5771 5768 5764 5760 5755 5751 5746 5741 5737 5732 5727 5721 5716 5710 5704 5699 5693 5688 5683 5678 5672 5667 5665 5663 5662 5663 5664 5665 5666 5669 5670 5673